153201 (2000 WO107) |
Classification: Aten [NEO, PHA] SPK-ID: 2153201 |
[ hide orbit diagram ]
For accurate long-term ephemerides, please instead use our Horizons system.This orbit viewer was implemented using two-body methods, and hence should not be used for determining accurate long-term trajectories (over several years or decades) or planetary encounter circumstances.
Orbital Elements at Epoch 2459200.5 (2020-Dec-17.0) TDB
Reference: JPL 145 (heliocentric ecliptic J2000)
Element | Value | Uncertainty (1-sigma) | Units |
e | .7807756933451849 | 3.3852e-08 | |
a | .9111748044163537 | 5.1722e-09 | au |
q | .1997516647395119 | 3.0476e-08 | au |
i | 7.773901011399445 | 7.5327e-06 | deg |
node | 69.24668056985851 | 7.5035e-06 | deg |
peri | 213.7019718983905 | 7.8589e-06 | deg |
M | 72.99852437728339 | 2.682e-06 | deg |
tp | 2459136.081210357525 (2020-Oct-13.58121036) | 2.1104e-06 | TDB |
period | 317.6881240973096 0.87 | 2.705e-06 7.406e-09 | d yr |
n | 1.1331868354315 | 9.6487e-09 | deg/d |
Q | 1.622597944093196 | 9.2106e-09 | au |
|
Additional Model Parameters
Parameter | Value | Uncertainty (1-sigma) |
A2 [EST] | -1.68984854173684E-14 | 4.469E-15 |
ALN [SET] | 1. | n/a |
NK [SET] | 0. | n/a |
NM [SET] | 2. | n/a |
R0 [SET] | 1. | n/a |
|
| | Orbit Determination Parameters
Additional Information
|
[ show covariance matrix ]
Physical Parameter Table
Parameter |
Symbol |
Value |
Units |
Sigma |
Reference |
Notes |
absolute magnitude |
H |
19.3 |
|
n/a |
MPO169985 |
|
diameter |
diameter |
0.510 |
km |
0.083 |
urn:nasa:pds:neowise_diameters_albedos::2.0[neos] (http://adsabs.harvard.edu/abs/2011ApJ...743..156M) |
|
geometric albedo |
albedo |
0.129 |
|
0.058 |
urn:nasa:pds:neowise_diameters_albedos::2.0[neos] (http://adsabs.harvard.edu/abs/2011ApJ...743..156M) |
|
SMASSII spectral type |
spec_B |
X |
|
n/a |
Binzel et al. (2004) Icarus 170, 259-294 |
|
|
153201 (2000 WO107) Discovered 2000-Nov-29 by LINEAR at Socorro |
Reference: 20070402/Numbers.arc | Last Updated: 2007-04-04 |
|
[ show close-approach data ]
|